Location: Charbonni�res
(45.9952°N, 2.9982°E)
Time: 18:06:32
(UTC+00:00)

ATLAS 5 CENTAUR R/B - Pass Details

Date: 29 November 2020
Orbit: 520 x 1138 km, 63.4° (Epoch: 02 January)

Event Time Altitude Azimuth Distance (km) Brightness Sun altitude
Rises 06:25:17 0° 207° (SSW) 2,646 4.8 -7.3°
Reaches altitude 10° 06:27:23 10° 204° (SSW) 1,787 3.9 -7.0°
Maximum altitude 06:31:16 61° 124° (SE) 649 2.1 -6.4°
Drops below altitude 10° 06:35:40 10° 44° (NE) 2,011 4.4 -5.7°
Sets 06:38:09 0° 41° (NE) 3,015 5.3 -5.3°
